Regional Weather Roundup
Issued by NWS

Home | Current Version | Previous Version | Graphics & Text | Print | Product List | Glossary On
Versions: 1 2 3 4 5 6 7 8 9 10 11 12 13 14 15 16 17 18 19 20 21 22 23 24 25 26 27 28 29 30 31 32 33 34 35 36 37 38 39 40 41 42 43 44 45 46 47 48 49 50
000
ASUS43 KMPX 192310
RWRMN
WEATHER ROUNDUP FOR MINNESOTA
NATIONAL WEATHER SERVICE TWIN CITIES/CHANHASSEN MN
500 PM CST MON FEB 19 2018


NOTE: "FAIR" INDICATES FEW OR NO CLOUDS BELOW 12,000 FEET WITH NO
SIGNIFICANT WEATHER AND/OR OBSTRUCTIONS TO VISIBILITY. N/A MEANS
CURRENT SKY AND/OR WEATHER CONDITIONS ARE NOT AVAILABLE.

MNZ060>063-068>070-200000-
   Twin Cities Metro

CITY           SKY/WX    TMP DP  RH WIND       PRES   REMARKS
TWIN CITIES    FRZ DRZL  22  20  92 NE16      29.86S FOG     WCI   8
ST PAUL        FRZ RAIN  22  20  92 NE14G21   29.88R FOG     WCI   9
CRYSTAL        LGT SNOW  20  15  81 NE20G28   29.88R WCI   4
BLAINE         LGT SNOW  21  18  86 NE21      29.88R WCI   6
LAKEVILLE      CLOUDY    21  21 100 NE15      29.84R FOG     WCI   8
EDEN PRAIRIE   FRZ RAIN  21  17  84 NE13G23   29.85R FOG     WCI   9
SOUTH ST PAUL  CLOUDY    24  21  89 NE9G17    29.86S FOG     WCI  14
LAKE ELMO      MIX PCPN  25  23  93 NE12      29.87R WCI  14
$$
MNZ001>005-007-008-013>017-022>024-027-028-200000-
   Northwest Minnesota

CITY           SKY/WX    TMP DP  RH WIND       PRES   REMARKS
BEMIDJI        CLOUDY    10   1  67 N9        30.11R WCI  -3
HALLOCK        FAIR       7  -6  56 N13       30.24S WCI  -9
ROSEAU         FAIR       9  -2  61 E10       30.21R WCI  -6
WARROAD        FAIR       7  -4  61 N7        30.21R WCI  -5
THIEF RVR FALL CLOUDY     7  -4  60 N14       30.19R WCI -10
CROOKSTON      FAIR       7  -4  61 N13       30.21F WCI  -9
FOSSTON        FAIR       9   0  66 N13       30.13F WCI  -7
DETROIT LAKES  FAIR      14   3  62 N9        30.07F WCI   2
MOORHEAD       FAIR       9   0  66 N17G25    30.13F WCI -10
PARK RAPIDS    FLURRIES  13   0  56 N15G22    30.05R WCI  -3
MAHNOMEN       CLOUDY    10   2  71 N15       30.10F WCI  -7
$$
MNZ006-009>011-018-025>026-200000-
   North Central Minnesota

CITY           SKY/WX    TMP DP  RH WIND       PRES   REMARKS
BAUDETTE       CLOUDY     8  -3  61 N12       30.17R WCI  -7
FLAG ISLAND    FAIR       7  -9  47 N9        30.21S WCI  -7
INTL FALLS     MOCLDY    11  -2  56 NE9       30.15S WCI  -2
WASKISH        FAIR      10   0  61 N10G16    30.15R WCI  -3
BIG FORK       FAIR      12   1  62 NE7       30.10S WCI   2
LONGVILLE      FLURRIES  12   1  62 N9        30.06R WCI   0
GRAND RAPIDS   FLURRIES  11   2  67 N10       30.07S WCI  -3
CRANE LAKE     CLOUDY    10   0  61 N7        30.17R WCI   0
ORR            MOCLDY    10  -2  56 CALM      30.09R
COOK             N/A     10   1  67 NE7       30.10R WCI   0
WALKER         CLOUDY    12   0  58 N9        30.08R WCI   0
$$
MNZ012-019>021-037-200000-
   Northeast Minnesota

CITY           SKY/WX    TMP DP  RH WIND       PRES   REMARKS
DULUTH         LGT SNOW  14   8  77 NE15      30.00F VSB 1   WCI  -1
ELY            FAIR       9   3  78 NE6       30.08S WCI  -1
HIBBING        FLURRIES  10   2  69 N12       30.05S WCI  -5
EVELETH        FLURRIES N/A N/A N/A NE8       30.06S
DULUTH HARBOR  SNOW      21  18  86 NE29G37   30.05F VSB 1/4 WCI   3
TWO HARBORS    LGT SNOW  18  10  73 NE10      30.03S WCI   6
GRAND MARAIS     N/A     15   2  56 NE8       30.15S WCI   4
G MARAIS ARPRT MOCLDY     7  -4  61 N15       30.04S WCI -11
$$
MNZ029>031-032-039>041-046>048-054>057-064-200000-
   West Central Minnesota

CITY           SKY/WX    TMP DP  RH WIND       PRES   REMARKS
FERGUS FALLS   LGT SNOW  10   7  85 N15       30.05F WCI  -6
WHEATON        LGT SNOW  10   7  85 N20G25    30.07S VSB 1   WCI  -8
MORRIS         LGT SNOW  14   9  79 N18       29.99R WCI  -3
ALEXANDRIA     CLOUDY    13   5  70 N20G28    29.97S WCI  -5
ELBOW LAKE     LGT SNOW  13   7  77 NE14G21   30.02F WCI  -3
WADENA         LGT SNOW  10   3  72 N16G22    30.02F WCI  -7
GLENWOOD       CLOUDY    14   9  79 N17G24    29.95F HAZE    WCI  -3
APPLETON       CLOUDY    16  10  79 N18G25    29.99S HAZE    WCI  -1
BENSON         LGT SNOW  16  10  79 NE15      29.99R WCI   1
ORTONVILLE     LGT SNOW  12   7  79 N22       30.00S WCI  -7
MADISON        LGT SNOW  18  12  79 N21       29.99S WCI   1
WILLMAR        CLOUDY    16  10  79 NE17G24   29.96S WCI   0
$$
MNZ033>034-036-042>043-049>051-058-059-200000-
   Central Minnesota

CITY           SKY/WX    TMP DP  RH WIND       PRES   REMARKS
ST CLOUD       CLOUDY    16  10  77 N13G21    29.95R WCI   2
SAUK CENTRE    FLURRIES  14   8  76 N16       29.96F WCI  -2
PAYNESVILLE    CLOUDY    16  11  82 N16G24    29.95R WCI   0
AITKIN         CLOUDY    12   5  73 N10G18    30.01R WCI  -1
PINE RIVER     LGT SNOW  10   3  72 N10       30.08R WCI  -3
BRAINERD       FLURRIES  14   4  64 N15       30.02R WCI  -1
STAPLES        FLURRIES  12   3  67 N8        30.03R WCI   1
LONG PRAIRIE   CLOUDY    14   7  73 NW14      29.98S WCI  -1
LITTLE FALLS   CLOUDY    14   3  62 N6        30.00R WCI   5
LITCHFIELD     CLOUDY    18  14  86 N17G23    29.92R WCI   2
BUFFALO        FLURRIES  19  14  82 N15G22    29.92R WCI   4
MAPLE LAKE     CLOUDY    18  15  86 N13G21    29.93R FOG     WCI   5
HUTCHINSON     FLURRIES  19  15  84 N13G23    29.90R WCI   6
$$
MNZ037-044-045-052-053-200000-
   East Central Minnesota

CITY           SKY/WX    TMP DP  RH WIND       PRES   REMARKS
PRINCETON      LGT SNOW  18  14  86 N10G23    29.92R WCI   6
MORA           LGT SNOW  18  12  79 NE9       29.97R WCI   6
CAMBRIDGE      LGT SNOW  19  12  73 N9G20     29.92R WCI   9
RUSH CITY      LGT SNOW  18  14  84 NE12G21   29.93R WCI   5
MOOSE LAKE     LGT SNOW  18  12  79 NE10G16   29.97S WCI   6
HINCKLEY       FLURRIES  19  14  79 NE15G22   29.95S WCI   5
CLOQUET        LGT SNOW  16   9  73 NE12G22   30.00R WCI   3
MCGREGOR       CLOUDY    14   9  79 N12       30.02R WCI   0
$$
MNZ071>073-080-081-089-090-097-098-200000-
   Southwest Minnesota

CITY           SKY/WX    TMP DP  RH WIND       PRES   REMARKS
MONTEVIDEO     LGT SNOW  16  12  86 NE21G26   29.95F WCI  -2
GRANITE FALLS  LGT SNOW  18  14  87 N18       29.95F WCI   2
CANBY          LGT SNOW  15  12  89 N15G23    29.97S WCI   0
MARSHALL       LGT SNOW  16  12  86 N17G25    29.92S FOG     WCI   0
REDWOOD FALLS  CLOUDY    16  14  92 N14G22    29.92R FOG     WCI   2
OLIVIA         MIX PCPN  18  14  86 N16G22    29.92S WCI   3
PIPESTONE      CLOUDY    12  10  92 NE21G28   29.84S WCI  -6
WINDOM         LGT SNOW  18   5  57 N20G25    29.83S VSB 3/4 WCI   1
WORTHINGTON    MIX PCPN  16  12  86 N23       29.84R FOG     WCI  -2
JACKSON        CLOUDY    19  18  93 N15       29.82R FOG     WCI   5
TRACY          LGT SNOW  16  15  93 N22       29.88F WCI  -1
SLAYTON        LGT SNOW  14  12  91 N21G26    29.85R WCI  -3
$$
MNZ065>067-074>077-082>085-091>093-200000-
   South Central Minnesota

CITY           SKY/WX    TMP DP  RH WIND       PRES   REMARKS
MANKATO        MIX PCPN  23  21  92 N15       29.85R FOG     WCI  10
NEW ULM        CLOUDY    19  16  86 N9G17     29.87R FOG     WCI   9
ST JAMES       CLOUDY    19  19 100 N15       29.86R FOG     WCI   5
FAIRMONT       MIX PCPN  22  20  92 N17G24    29.82R FOG     WCI   8
GLENCOE        CLOUDY    20  17  86 N9G18     29.87R FOG     WCI   9
FARIBAULT      MIX PCPN  23  21  93 N12G18    29.81R WCI  12
OWATONNA       MIX PCPN  25  23  93 N8        29.79R WCI  16
WASECA         CLOUDY    23  21  93 N9        29.82R FOG     WCI  13
ALBERT LEA     CLOUDY    27  25  93 NE7       29.77R FOG     WCI  19
$$
MNZ078>079-086>088-094>096-200000-
   Southeast Minnesota

CITY           SKY/WX    TMP DP  RH WIND       PRES   REMARKS
ROCHESTER      FRZ RAIN  27  26  96 N15       29.74R FOG     WCI  15
RED WING       MIX PCPN  25  19  80 NE7       29.83R WCI  17
STANTON        MIX PCPN  25  23  91 NE13      29.81R WCI  14
DODGE CENTER   CLOUDY    25  23  93 NE13G18   29.75S FOG     WCI  13
WINONA         MIX PCPN  32  30  93 N3        29.76S
AUSTIN         CLOUDY    28  27  93 N6        29.74R FOG     WCI  22
PRESTON        FOG       31  30  96 NE9       29.71F VSB 1   WCI  23
$$
ABBREVIATIONS USED IN REMARKS
   TC - TEMPERATURES IN CELSIUS
  WCI - WIND CHILL INDEX
   HX - HEAT INDEX
  VSB - VISIBILITY
$$




USA.gov is the U.S. government's official web portal to all federal, state and local government web resources and services.